Regional Weather Roundup
Issued by NWS Wakefield, VA

Home | Current Version | Previous Version | Text Only | Print | Product List | Glossary Off
Versions: 1 2 3 4 5 6 7 8 9 10 11 12 13 14 15 16 17 18 19 20 21 22 23 24 25 26 27 28 29 30 31 32 33 34 35 36 37 38 39 40 41 42 43 44 45 46 47 48 49 50

000
ASUS41 KAKQ 311910
RWRAKQ

REGIONAL WEATHER ROUNDUP
NATIONAL WEATHER SERVICE WAKEFIELD VA
200 PM EST SAT JAN 31 2015

Note: "fair" indicates few or no clouds below 12,000 feet with no
significant weather and/or obstructions to visibility. * = Denotes
station may not report precipitation (e.g., rain,snow,etc.),
thunder or fog.

VAZ042-051-052>054-056-312000-
NORTHERN VIRGINIA

CITY           SKY/WX    TMP DP  RH WIND       PRES   REMARKS
WASH NATIONAL  MOSUNNY   33   5  30 NW15G21   30.31F WCI  23
DULLES         SUNNY     31   8  38 W10G17    30.28F WCI  22
FORT BELVOIR   SUNNY     32   6  34 N8        30.30F
QUANTICO       SUNNY     35   6  29 NW12G22   30.31F
FREDERICKSBRG* SUNNY     37   5  26 W9        30.28F
STAFFORD*      SUNNY     33  -1  23 CALM      30.33S
WARRENTON      SUNNY     37  14  39 CALM      30.27S
CULPEPER*      SUNNY     36   3  25 CALM      30.28S
MANASSAS*      SUNNY     34   9  35 N9G17     30.29F
LEESBURG*      SUNNY     32  14  47 NW10      30.28F WCI  24
WINCHESTER     SUNNY     32   9  37 W8        30.25F
FRONT ROYAL*   FAIR      34   9  35 N7        30.24S
LURAY*         FAIR      37   9  30 S6        30.23F
$$

VAZ048-049-060>072-079>083-312000-
CENTRAL AND SOUTH CENTRAL VIRGINIA

CITY           SKY/WX    TMP DP  RH WIND       PRES   REMARKS
RICHMOND       SUNNY     39   3  22 NW7       30.29F
CHESTERFIELD*  FAIR      39   7  26 NW10      30.29F
PETERSBURG*    SUNNY     42   2  19 W9        30.29F
HANOVER        SUNNY     36   5  27 VRB5      30.29F
TAPPAHANNOCK*  SUNNY     36  -3  18 W8        30.29F
QUINTON*       FAIR      36   4  26 W7        30.29F
CHARLOTTSVILLE SUNNY     39  -1  18 SW5       30.24F
GORDONSVILLE*  FAIR      39   1  20 SW9       30.24F
ORANGE*        SUNNY     39   5  24 CALM      30.27F
LOUISA*        SUNNY     39   3  22 W7        30.24F
BUMPASS*       FAIR      37   5  26 W5        30.26F
FARMVILLE*     SUNNY     45   3  17 S5        30.26F
CREWE*         FAIR      41  -1  17 W5        30.28S
FORT PICKETT*  FAIR      40   1  19 W8        30.28F
CHASE CITY*    FAIR      44   8  22 W7        30.29F
CLARKSVILLE*   FAIR      43   5  21 W6        30.29F
SOUTH HILL*    SUNNY     41   2  20 W5        30.35F
LAWRENCEVILLE* FAIR      42   2  19 SW8       30.28F
EMPORIA*       SUNNY     41   5  22 W6        30.31F
$$

VAZ088>098-312000-
SOUTHEAST VIRGINIA

CITY           SKY/WX    TMP DP  RH WIND       PRES   REMARKS
NORFOLK        SUNNY     36   2  23 W9G17     30.28F
VIRGINIA BEACH MOSUNNY   38   5  25 NW17      30.27F
NORFOLK NAVAL  MOSUNNY   39   5  24 W15       30.30F
WEST POINT*    SUNNY     39  -3  17 W8        30.31F
SALUDA*        FAIR      33   6  32 NW8       30.28F
NEWPORT NEWS   SUNNY     38   7  27 W15G23    30.29F
LANGLEY AFB    SUNNY     36   7  29 W14       30.28F
FORT EUSTIS    SUNNY     37  12  36 NW14      30.27F
WILLIAMSBURG*    N/A     39  10  30 W13G18    30.30F
HR EXEC AP*    FAIR      37   9  30 NW9G18    30.31F
FRANKLIN*      SUNNY     38   6  26 NW7       30.30F
WAKEFIELD      SUNNY     40   3  21 NW8       30.29F
$$

VAZ020-022-025-037-045-312000-
WEST CENTRAL AND SOUTHWEST VIRGINIA

CITY           SKY/WX    TMP DP  RH WIND       PRES   REMARKS
STAUNTON*      SUNNY     36   2  24 E5        30.23F
WAYNESBORO*    FAIR      38   1  20 SW5       30.19F
HOT SPRINGS VA SUNNY     32   0  25 W13G18    30.09S WCI  22
LYNCHBURG      SUNNY     42   1  18 W8G18     30.25F
DANVILLE       SUNNY     44   7  21 SW6       30.30F
SOUTH BOSTON*  FAIR      44  -1  15 W7        30.29F
MARTINSVILLE   SUNNY     48   3  15 S3        30.29F
ROANOKE        MOSUNNY   44  -7  11 NW13      30.26F
BLACKSBURG     SUNNY     36   5  27 W12G20    30.26F
DUBLIN*        SUNNY     40   2  20 W10       30.25F
MARION*        SUNNY     39  10  30 W12G17    30.26F
HILLSVILLE*    SUNNY     38  -1  19 W9        30.22F
RICHLANDS*     FAIR      35   8  32 SW6       30.25F
WISE*          MOSUNNY   39   5  24 SW3       30.27F
ABINGDON*      SUNNY     41  10  28 W5        30.29F
$$

MDZ021>025-VAZ099-100-312000-
SOUTHERN MARYLAND AND THE DELMARVA PENINSULA

CITY           SKY/WX    TMP DP  RH WIND       PRES   REMARKS
PATUXENT RIVER MOSUNNY   33   4  29 NW15      30.27F WCI  23
BAY BRIDGE APT   N/A     30   5  34 NW13G18   30.27  WCI  20
LEONARDTOWN    SUNNY     32   1  27 W12G22    30.29S WCI  23
DOVER          SUNNY     28   5  37 W20       30.22F WCI  15
GEORGETOWN     SUNNY     30   2  30 NW13G20   30.22F WCI  20
EASTON         SUNNY     30   9  40 NW13G21   30.30F WCI  20
CAMBRIDGE      SUNNY     32   9  37 NW10G20   30.26F WCI  24
SALISBURY      SUNNY     33   6  32 NW14G22   30.23F WCI  23
OCEAN CITY     SUNNY     31   6  35 NW15G23   30.21F WCI  20
WALLOPS ISLAND SUNNY     31   7  36 NW21G26   30.24F WCI  18
ACCOMACK*      SUNNY     32   9  37 NW22G33   30.26F WCI  19
$$

NCZ012>017-030>032-312000-
NORTH CENTRAL AND EASTERN NORTH CAROLINA

CITY           SKY/WX    TMP DP  RH WIND       PRES   REMARKS
ROANOKE RAPIDS FAIR      43   5  21 NW5       30.30F
RALEIGH        MOSUNNY   45   3  17 VRB5      30.31F
ELIZABETH CITY SUNNY     39   8  27 NW13G20   30.29F
AHOSKIE*       SUNNY     40   6  24 NW3       30.31F
EDENTON*       SUNNY     40   7  24 NW10G20   30.31S
CURRITUCK*     SUNNY     38   1  21 NW12G18   30.29S
KILL DEVIL HLS SUNNY     36   6  28 NW9       30.27S
MANTEO         SUNNY     36   9  32 NW12G18   30.29F
CAPE HATTERAS  SUNNY     38  14  37 NW10G17   30.30F
TARBORO*       FAIR      44   8  22 W8        30.32F
GOLDSBORO      SUNNY     27  16  63 CALM      30.30F
WASHINGTON     SUNNY     42   7  23 NW9       30.32S
GREENVILLE     SUNNY     43   7  22 W6        30.32F
NEW BERN       SUNNY     46   6  19 N8        30.33F
WILMINGTON     SUNNY     47  10  22 N7        30.33F
$$

VAZ048-312000-
ELSEWHERE

CITY           SKY/WX    TMP DP  RH WIND       PRES   REMARKS
HARRISBURG PA  SUNNY     24   7  48 NW14      30.23F WCI  12
BALTIMORE      SUNNY     30   4  33 NW14G21   30.27F WCI  19
ANNAPOLIS      SUNNY     30   8  39 W9        30.27F
ANDREWS AFB    SUNNY     29   4  34 W14G24    30.27F WCI  19
PHILADELPHIA   SUNNY     27   1  32 NW16      30.21F WCI  15
HENDERSON NC   SUNNY     44   1  16 W7        30.29F
GREENSBORO     MOSUNNY   47   1  15 W8        30.28F
ROCKY MOUNT    SUNNY     44   6  21 W7        30.31F
$$

VAZ100-312000-
MARINE

STATION/POSITION TIME  TEMP    WIND        PRES    WAVE   SWELL
                       AIR SEA DIR/SP/G            HT/PER HT/PER
                 (UTC) (F)     (DEG/KT/KT) (MB)    (FT/S) (FT/S)
BRANDYWINE LGT   1900   24 35  320/ 15/ 23 1023.4R
CAPE MAY NJ      1900   25 32              1022.7R
LEWES DE         1900   26 32  310/ 22/ 25 1023.0F
15NM E FENWICK I 1900   27 39              1022.2S   6/ 6
OCEAN-CITY-INLET 1900   29 34  340/ 16/ 22 1022.6F
WACHAPREAGUE VA  1900   31 32  290/  7/ 14 1024.7F
THOMAS POINT MD  1900   27 34  300/ 14/ 16 1025.9F
GOOSES REEF MD   1900   29 36  VRB 14/ 17  1024.1F   2/ 3
COVE POINT MD    1900   28     340/ 11/ 16 1025.0S
SOLOMONS ISLAND  1900      36                N/A
BISHOPS HEAD MD  1900   28 32  310/ 14/ 19 1024.5F
PINEY POINT MD   1900          320/ 20/ 23   N/A
POTOMAC MD       1900   30     310/ 19/ 23 1024.5F
CAMBRIDGE MD     1900   27 33  310/ 11/ 15 1024.9S
LEWISETTA VA     1900   30 34  320/ 16/ 20 1025.6R
RAPPAHANNOCK LGT 1900          320/ 17/ 20 1025.5F
STINGRAY PT      1900   33 37  310/ 17/ 23 1025.5F   2/ 2
YORK RVR RNG VA  1900   34     310/ 13/ 15 1024.7F
YORKTOWN VA      1900   33 38  320/ 14/ 16 1025.3F
JAMESTOWN VA     1900   33 39  310/ 12/ 16   N/A     0
DOMINION TERM VA 1900   33     320/ 13/ 17 1025.7S
KIPTOPEKE VA     1900      40  310/ 16/ 18   N/A
CHES BAY BRIDGE  1900   32 38  280/ 13/ 15 1025.1F
CAPE HENRY VA    1900   32     290/ 14/ 18 1024.1S
CHESAPEAKE LGHT  1800   31     320/ 24/ 26 1025.9F
WILLOUBY STN VA  1900   33     290/ 16/ 19 1025.8F
S CRANEY ISL VA  1900          320/ 11/ 16 1025.5F
CAPE HENRY BUOY  1800      42                N/A     5/ 5
1ST LANDING BUOY 1900   34 39  310/ 17/ 21 1024.9F   3/ 3
CAPE CHARLES BUO 1800      39                N/A     4/ 4   2/ 8
OFFSHORE WE BUOY 1900      43                N/A     6/ 7   2/ 8
64NM E OF VA BCH 1900   32 48  310/ 23/ 29 1023.3F   9/ 9   5/ 9
DUCK PIER NC     1900   34 40  340/ 19/ 22 1024.2F
44100 DUCK FRF   1900      43                N/A     6/ 8   2/11
44056 DUCK FRF   1900      41                N/A     5/ 8   2/11
OREGON INLET NC  1900   35 39  300/ 12/ 18 1025.2F
HATTERAS NC      1900   35 40  340/ 14/ 19 1026.3F


USA.gov is the U.S. government's official web portal to all federal, state and local government web resources and services.